Dewpoint
22 21 22 22 22 22 22 22 23 23 23 23 23 24 24 24 25 25 25 25 25 25 26 26 27 27 28 28 28 29 29 30 30 30 30 30 30 30 31 32 33 34 34 34 35 35 35 36 36 35 35 36 36 37 38 39 41 42 43 45 47 49 50 51 52 53 55 57 58
21 21 22 23 23 22 22 22 23 23 23 23 24 24 24 24 24 25 25 25 25 25 25 25 26 27 27 27 27 28 28 28 29 29 30 30 30 31 32 32 33 33 34 34 34 34 34 35 35 35 35 35 36 37 38 40 42 43 43 45 46 48 49 49 50 52 53 55 57
21 22 23 22 22 22 22 22 22 23 23 24 24 24 25 24 24 24 24 25 25 25 25 25 27 27 27 27 28 28 29 29 29 29 30 30 30 31 31 32 32 33 34 34 34 35 35 35 35 35 35 35 36 37 37 39 40 41 43 44 45 47 48 48 50 51 53 56 57
21 22 23 22 22 22 23 23 23 23 24 24 25 25 25 25 25 25 25 25 25 26 26 26 28 29 30 29 29 29 29 30 30 30 30 30 30 30 31 32 32 33 34 34 35 35 35 35 35 35 35 36 36 37 37 37 38 39 41 43 44 46 47 48 50 52 53 56 57
20 21 23 23 24 24 25 24 24 24 24 25 25 24 24 25 25 25 25 25 25 25 26 27 28 29 29 29 29 29 29 29 29 30 30 30 30 30 31 31 32 32 33 34 35 35 36 35 35 35 35 35 36 36 36 37 38 39 40 41 43 44 46 48 49 51 53 56 57
20 21 22 23 24 25 24 23 23 23 24 24 24 23 23 23 24 24 24 24 25 25 26 27 28 28 28 28 28 28 28 28 29 30 30 31 31 31 31 32 33 34 34 35 35 36 37 37 36 36 36 35 36 37 37 37 38 39 40 41 42 43 45 47 48 50 52 54 57
21 21 21 22 23 23 22 22 21 21 22 23 22 22 22 23 24 24 24 24 25 25 26 28 29 29 28 28 29 29 29 29 29 30 30 30 30 31 32 32 33 34 34 34 35 35 36 37 36 36 36 36 36 37 38 38 39 39 41 42 42 43 45 47 48 49 51 52 54
20 20 20 20 21 21 21 21 21 20 21 21 21 21 22 23 24 24 24 25 25 26 27 28 29 29 29 29 30 30 30 30 30 30 30 29 30 30 31 32 32 33 33 34 34 34 34 35 35 35 36 36 36 36 37 39 39 40 41 41 42 43 45 47 48 49 50 52 53
19 19 19 19 20 20 20 21 21 21 21 21 21 22 22 23 24 24 25 25 25 27 28 28 29 29 29 29 30 30 30 31 31 31 31 31 31 32 32 33 33 33 34 34 34 34 35 35 35 35 36 36 36 37 38 39 39 40 40 41 42 43 44 46 48 49 50 51 52
17 18 18 19 19 20 20 21 21 21 21 21 21 22 23 24 24 24 24 25 26 27 28 28 29 29 29 30 30 30 31 31 32 32 32 32 32 33 33 33 34 34 34 34 35 35 35 35 35 36 36 36 36 37 38 39 39 39 40 40 41 42 43 45 47 48 49 50 51
17 17 18 18 19 20 20 21 21 21 21 21 21 22 23 24 24 24 25 25 26 27 27 28 29 29 30 30 30 31 31 31 32 32 32 32 33 33 33 34 34 34 34 35 35 35 36 36 36 36 36 36 37 38 38 39 39 39 39 39 40 41 42 43 44 46 48 49 51
17 17 17 18 19 20 20 21 21 21 21 21 22 23 24 24 25 25 26 27 26 27 27 29 29 30 30 30 31 31 31 32 32 32 32 32 33 33 33 34 34 34 34 34 35 36 36 36 36 36 37 37 37 38 38 39 39 39 39 40 40 41 41 42 43 45 47 48 50
17 17 18 18 19 20 20 21 21 21 21 22 22 23 24 25 25 27 27 27 27 28 28 30 30 31 31 31 31 32 32 33 33 33 33 33 33 34 34 34 34 34 34 35 35 35 36 36 36 36 36 37 37 38 39 39 39 39 39 40 40 41 41 42 43 44 46 47 48
17 17 18 18 19 20 20 21 21 22 22 22 23 24 25 26 27 28 28 28 29 29 30 30 31 31 32 32 32 32 33 33 33 33 34 34 34 34 34 35 35 35 36 36 36 36 36 36 36 36 36 37 37 38 38 39 39 39 40 40 40 41 41 42 43 44 45 47 48
17 17 18 18 19 20 20 21 21 22 23 23 24 24 25 25 27 28 28 28 29 29 30 30 30 31 31 32 32 32 32 32 33 33 33 33 33 34 34 34 34 35 35 36 37 37 38 38 38 37 37 37 37 38 38 39 39 39 40 40 41 41 42 42 43 44 46 47 48
17 17 18 19 19 20 21 21 22 23 23 24 24 24 24 24 25 27 28 28 29 29 29 30 30 30 31 31 31 32 32 32 32 32 32 32 32 33 33 33 34 34 34 35 35 36 37 37 38 38 39 39 39 39 39 39 39 39 40 40 41 41 42 42 43 44 46 47 48
17 18 18 19 20 20 21 21 22 22 23 23 23 23 24 24 24 25 27 29 29 29 29 30 30 30 30 30 31 31 31 32 32 32 32 32 32 32 33 33 33 34 34 34 34 35 35 36 37 37 38 39 39 39 39 39 39 40 40 40 41 41 42 42 43 44 45 46 47
18 19 19 19 20 21 21 21 22 22 22 23 23 23 23 24 24 25 26 28 29 29 29 29 30 30 30 30 30 31 31 31 31 31 32 32 32 32 33 33 33 34 34 34 34 34 34 35 35 36 37 37 38 39 39 40 40 40 40 40 41 41 42 42 43 44 45 46 47
19 19 20 20 20 21 21 21 22 22 22 23 23 24 24 24 25 25 26 27 28 29 29 29 29 30 30 30 30 31 31 31 31 31 32 32 32 33 33 33 33 34 34 34 34 34 34 35 35 36 36 36 37 38 39 39 40 40 41 41 41 41 42 42 43 44 45 46 48
19 19 20 20 21 21 21 21 22 22 22 23 24 25 25 25 25 25 25 27 28 28 29 29 29 30 30 30 30 31 31 32 32 32 32 33 33 33 33 34 34 34 34 34 34 35 35 35 35 36 36 36 37 37 38 39 39 40 41 41 41 42 42 43 43 43 45 46 48
19 19 20 20 21 21 21 22 22 23 23 23 24 25 26 26 25 25 26 26 27 28 29 29 30 30 30 30 31 31 32 32 33 33 33 33 33 34 34 34 34 34 34 35 35 35 35 35 36 36 36 36 37 37 38 39 39 40 41 41 42 42 43 43 43 44 45 46 47
19 19 20 21 21 21 22 23 23 23 23 24 24 25 26 27 27 26 27 27 28 29 29 29 30 30 30 31 31 32 32 33 33 34 34 34 34 34 34 34 34 35 35 35 35 35 35 36 36 36 36 37 37 37 38 39 39 40 41 41 42 42 43 43 44 44 45 46 47
19 20 20 21 21 22 23 24 24 24 24 24 25 25 26 27 27 27 28 28 29 29 30 30 30 30 31 32 32 32 33 33 34 34 34 34 34 34 34 35 35 35 35 35 35 36 36 36 36 36 37 37 37 37 38 38 39 40 40 41 42 42 43 43 44 45 46 46 47
20 20 21 21 21 23 24 25 25 25 25 24 25 25 26 27 27 28 28 28 29 30 30 30 31 31 32 32 33 33 33 33 33 34 34 34 34 34 35 35 35 35 35 36 36 36 36 36 37 37 37 37 37 38 38 38 39 39 40 41 41 42 43 43 44 45 45 46 47
20 21 21 21 22 23 24 25 25 24 24 24 25 25 26 27 27 28 28 28 29 30 30 31 31 32 32 33 33 34 34 34 34 34 34 34 34 35 35 35 36 36 36 36 36 36 36 36 37 37 38 38 38 38 39 39 39 39 40 41 41 42 42 43 43 44 45 45 46
21 21 22 23 23 24 24 24 24 24 24 24 25 25 26 27 27 28 28 28 29 30 30 31 32 32 33 33 34 34 34 34 34 34 35 35 35 35 36 36 37 37 37 37 36 36 36 36 37 37 37 38 39 39 39 39 39 40 40 41 41 42 42 43 43 43 44 45 46
22 23 23 24 24 24 24 24 24 24 24 24 25 25 26 26 27 27 28 28 29 30 30 31 32 32 32 33 33 34 34 34 35 35 35 36 36 37 38 38 39 39 39 38 37 37 37 37 37 37 37 38 39 39 39 40 40 40 41 41 42 42 42 42 42 43 43 44 45
22 23 23 24 23 23 23 23 23 24 24 24 25 25 26 26 27 27 28 29 29 30 30 30 31 31 32 33 33 33 34 34 35 36 36 37 37 37 37 37 37 38 39 39 38 38 38 38 37 37 37 37 39 39 40 40 41 41 42 42 42 42 42 42 43 43 43 43 44
22 23 23 23 23 23 23 23 23 23 24 24 25 25 25 26 26 27 28 29 29 29 29 29 30 31 31 32 32 33 34 34 35 36 36 36 35 35 35 35 35 35 35 35 36 37 38 38 38 38 37 37 38 39 40 41 41 42 43 43 43 43 43 43 43 43 43 43 44
23 23 22 22 22 22 22 22 23 23 24 25 25 25 25 26 26 27 27 28 28 28 28 29 30 30 30 31 32 33 34 34 34 34 34 34 34 34 34 34 34 34 34 34 35 35 36 37 38 38 38 38 38 39 40 41 42 42 43 43 44 44 43 43 43 43 44 44 45
23 22 22 22 22 22 22 22 23 23 24 24 25 25 25 25 26 26 26 26 27 27 27 28 29 29 30 31 32 32 32 33 33 33 33 33 32 32 32 32 33 33 33 34 34 34 35 36 36 37 38 38 38 39 40 41 42 42 43 44 44 44 45 45 45 45 46 46 47
22 22 21 21 21 21 22 22 23 23 23 24 24 24 25 25 25 25 25 25 26 26 27 27 28 29 29 30 30 31 31 31 31 31 32 32 31 31 31 31 31 32 32 33 34 34 34 35 35 36 37 37 38 39 40 40 41 42 43 44 44 45 45 46 47 48 48 49 49
21 21 21 21 21 21 21 22 22 23 23 23 23 24 24 24 24 25 25 25 26 26 26 27 28 28 29 29 30 30 30 30 30 30 30 30 30 30 30 30 31 31 32 33 33 33 34 34 34 35 35 36 37 39 40 41 42 42 43 44 44 45 45 46 48 49 51 52 52
21 21 21 21 21 21 21 22 22 22 22 22 23 23 23 23 24 24 25 25 25 26 26 27 27 28 29 29 29 29 29 29 29 30 30 30 30 30 30 30 30 31 31 32 32 32 33 33 34 34 34 34 37 39 40 41 42 42 43 43 44 45 45 45 47 48 50 52 53
21 20 20 20 20 21 21 21 21 22 22 22 22 22 22 23 23 23 24 25 25 26 26 26 27 28 28 29 29 28 28 28 29 29 29 29 29 29 29 29 29 30 30 31 31 32 32 33 33 34 34 34 36 39 40 41 42 42 43 43 44 45 45 46 47 48 49 52 53
20 20 20 20 20 20 21 21 21 21 21 21 21 21 21 22 22 23 24 25 25 25 25 26 26 27 27 27 27 27 27 27 28 28 29 29 29 28 28 28 28 29 30 30 30 31 32 32 33 34 34 35 37 39 41 42 42 43 43 43 44 45 46 47 48 48 50 52 53
20 20 19 19 19 20 20 21 21 21 21 21 21 21 21 22 22 23 24 25 25 25 25 25 25 26 26 26 27 27 27 27 27 27 28 28 28 28 27 27 27 28 28 30 30 31 32 33 34 34 34 35 38 40 42 42 43 43 43 44 45 46 47 48 48 49 50 51 52
20 19 19 19 19 20 20 20 20 20 20 20 20 21 21 22 22 23 24 25 25 25 25 25 25 25 26 26 26 26 26 26 27 27 28 28 27 27 27 26 26 27 28 29 30 32 34 35 35 35 35 37 39 41 42 43 43 43 44 45 45 45 46 46 46 46 45 45 46
19 19 19 19 19 19 20 20 20 20 20 20 20 21 21 21 22 23 24 25 24 24 24 24 25 25 25 26 26 26 26 26 26 27 27 27 27 27 27 26 26 26 27 29 31 34 35 36 36 36 37 39 41 43 43 44 44 44 44 44 43 42 42 42 42 42 42 42 42
19 19 19 19 19 19 19 20 20 19 19 20 20 20 21 21 22 23 24 24 24 24 24 24 24 25 25 25 25 25 25 25 26 26 27 27 27 28 27 26 26 26 27 29 32 35 37 37 37 37 39 41 43 45 45 45 45 44 43 42 41 41 40 40 40 40 40 40 40
18 18 18 18 19 19 19 19 19 19 19 19 20 20 21 21 22 23 23 23 23 23 23 24 24 24 24 25 25 25 25 25 25 26 27 27 27 27 27 26 25 25 26 29 32 35 38 38 38 39 41 43 46 46 46 45 43 42 41 40 40 39 39 39 38 38 38 39 39